Date String (YYYY-MM-DD hh:mm:ss) UTC,Instrument flags,absolute air pressure of the measurement (hPa),sample flow rate (lpm),inlet stack bypass flow (lpm),air temperature of the measurement (°C),ambient temperature measured by the external sensor (°C),aerosol sample conditioner tube jacket temperature (°C),OPC LED temperature (°C),internal box temperature (°C),relative humidity of the measurement (%),span deviation,mass concentration of particles derived from Lorenz-Mie calculation of OPC scattering (μg/m³),mass concentration of particles derived from Lorenz-Mie calculation of OPC scattering (μg/m³),mass concentration of particles derived from Lorenz-Mie calculation of OPC scattering (μg/m³)
DateTimeUTC,F1_M11,P_M11,Q1_M11,Q2_M11,T1_M11,T2_M11,T3_M11,T4_M11,T5_M11,U1_M11,ZSPAN_M11,X0_M11,X2_M11,X1_M11
2023-12-31 23:00:00,SystemResetWarning,0830.7,5.00,000.00,024.9,024.0,000.0,033.2,026.0,12.4,0000.0,0012.14,0005.21,0004.63
2023-12-31 23:01:00,SystemResetWarning,0830.7,5.01,000.00,024.9,024.0,000.0,033.2,026.0,12.4,0000.0,0012.95,0005.29,0004.68
2023-12-31 23:02:00,SystemResetWarning,0830.7,5.01,000.00,024.9,024.0,000.0,033.2,026.0,12.4,0000.0,0012.89,0005.36,0004.72
2023-12-31 23:03:00,SystemResetWarning,0830.8,5.00,000.00,024.9,023.9,000.0,033.2,026.0,12.4,0000.0,0012.49,0005.41,0004.76
2023-12-31 23:04:00,SystemResetWarning,0830.8,4.99,000.00,024.9,023.9,000.0,033.2,026.0,12.4,0000.0,0012.93,0005.45,0004.80
2023-12-31 23:05:00,SystemResetWarning,0830.8,5.00,000.00,024.8,023.9,000.0,033.2,026.0,12.4,0000.0,0012.89,0005.43,0004.82
2023-12-31 23:06:00,SystemResetWarning,0830.8,5.00,000.00,024.8,023.9,000.0,033.2,025.9,12.4,0000.0,0013.26,0005.47,0004.83
2023-12-31 23:07:00,SystemResetWarning,0830.8,4.99,000.00,024.8,023.9,000.0,033.2,025.9,12.4,0000.0,0013.50,0005.53,0004.84
2023-12-31 23:08:00,SystemResetWarning,0830.8,5.00,000.00,024.8,023.9,000.0,033.2,025.9,12.4,0000.0,0012.98,0005.55,0004.84
2023-12-31 23:09:00,SystemResetWarning,0830.8,5.00,000.00,024.8,023.9,000.0,033.1,025.9,12.4,0000.0,0013.07,0005.60,0004.85
2023-12-31 23:10:00,SystemResetWarning,0830.8,5.00,000.00,024.8,023.9,000.0,033.1,025.9,12.4,0000.0,0013.17,0005.63,0004.86
2023-12-31 23:11:00,SystemResetWarning,0830.9,5.00,000.00,024.8,023.9,000.0,033.1,025.9,12.4,0000.0,0013.01,0005.65,0004.85
2023-12-31 23:12:00,SystemResetWarning,0830.8,5.01,000.00,024.8,023.9,000.0,033.1,025.9,12.4,0000.0,0012.73,0005.61,0004.84
2023-12-31 23:13:00,SystemResetWarning,0830.9,5.00,000.00,024.7,023.9,000.0,033.1,025.9,12.4,0000.0,0012.00,0005.57,0004.84
2023-12-31 23:14:00,SystemResetWarning,0830.9,5.00,000.00,024.7,023.9,000.0,033.1,025.9,12.4,0000.0,0011.89,0005.54,0004.84
2023-12-31 23:15:00,SystemResetWarning,0830.9,5.00,000.00,024.7,023.9,000.0,033.1,025.9,12.4,0000.0,0012.35,0005.55,0004.83
2023-12-31 23:16:00,SystemResetWarning,0830.9,5.01,000.00,024.7,023.9,000.0,033.1,025.9,12.5,0000.0,0012.62,0005.53,0004.81
2023-12-31 23:17:00,SystemResetWarning,0830.9,5.00,000.00,024.7,023.9,000.0,033.1,025.9,12.5,0000.0,0013.19,0005.52,0004.81
2023-12-31 23:18:00,SystemResetWarning,0830.9,5.00,000.00,024.7,023.9,000.0,033.1,025.8,12.5,0000.0,0012.51,0005.47,0004.80
2023-12-31 23:19:00,SystemResetWarning,0830.9,5.00,000.00,024.7,023.9,000.0,033.1,025.9,12.5,0000.0,0011.94,0005.45,0004.80
2023-12-31 23:20:00,SystemResetWarning,0830.9,4.99,000.00,024.7,023.9,000.0,033.1,025.9,12.5,0000.0,0011.85,0005.40,0004.80
2023-12-31 23:21:00,SystemResetWarning,0830.9,4.99,000.00,024.7,023.8,000.0,033.0,025.9,12.5,0000.0,0011.75,0005.37,0004.79
2023-12-31 23:22:00,SystemResetWarning,0830.9,5.00,000.00,024.7,023.8,000.0,033.0,025.9,12.5,0000.0,0011.61,0005.34,0004.79
2023-12-31 23:23:00,SystemResetWarning,0830.9,5.01,000.00,024.7,023.8,000.0,033.0,025.8,12.5,0000.0,0012.51,0005.33,0004.79
2023-12-31 23:24:00,SystemResetWarning,0830.9,5.01,000.00,024.7,023.8,000.0,033.0,025.8,12.5,0000.0,0012.79,0005.34,0004.78
2023-12-31 23:25:00,SystemResetWarning,0830.9,5.00,000.00,024.6,023.8,000.0,033.0,025.7,12.5,0000.0,0013.43,0005.36,0004.77
2023-12-31 23:26:00,SystemResetWarning,0830.9,4.99,000.00,024.6,023.8,000.0,033.0,025.8,12.5,0000.0,0013.40,0005.33,0004.75
2023-12-31 23:27:00,SystemResetWarning,0830.9,4.99,000.00,024.6,023.8,000.0,033.0,025.8,12.5,0000.0,0013.28,0005.29,0004.75
2023-12-31 23:28:00,SystemResetWarning,0830.9,5.01,000.00,024.6,023.9,000.0,033.0,025.8,12.5,0000.0,0012.95,0005.28,0004.75
2023-12-31 23:29:00,SystemResetWarning,0830.9,5.00,000.00,024.6,023.9,000.0,033.0,025.9,12.5,0000.0,0012.95,0005.28,0004.74
2023-12-31 23:30:00,SystemResetWarning,0830.9,4.99,000.00,024.7,023.9,000.0,033.0,025.9,12.4,0000.0,0013.68,0005.31,0004.74
2023-12-31 23:31:00,SystemResetWarning,0831.0,4.99,000.00,024.7,023.9,000.0,033.0,025.9,12.4,0000.0,0013.66,0005.31,0004.73
2023-12-31 23:32:00,SystemResetWarning,0831.0,5.00,000.00,024.7,023.9,000.0,033.0,026.0,12.4,0000.0,0013.60,0005.31,0004.72
2023-12-31 23:33:00,SystemResetWarning,0831.0,5.01,000.00,024.7,023.9,000.0,033.0,026.0,12.4,0000.0,0014.42,0005.32,0004.71
2023-12-31 23:34:00,SystemResetWarning,0831.0,5.01,000.00,024.7,023.9,000.0,033.0,026.0,12.4,0000.0,0014.36,0005.33,0004.71
2023-12-31 23:35:00,SystemResetWarning,0831.0,4.99,000.00,024.7,023.9,000.0,033.0,026.0,12.4,0000.0,0013.72,0005.32,0004.72
2023-12-31 23:36:00,SystemResetWarning,0831.0,4.99,000.00,024.7,023.9,000.0,033.0,026.0,12.4,0000.0,0013.33,0005.31,0004.71
2023-12-31 23:37:00,SystemResetWarning,0831.0,5.01,000.00,024.7,023.9,000.0,033.0,026.0,12.4,0000.0,0013.72,0005.33,0004.72
2023-12-31 23:38:00,SystemResetWarning,0831.1,5.01,000.00,024.7,023.9,000.0,033.0,026.0,12.3,0000.0,0013.93,0005.37,0004.73
2023-12-31 23:39:00,SystemResetWarning,0831.1,5.00,000.00,024.7,023.9,000.0,033.0,026.0,12.3,0000.0,0013.99,0005.43,0004.75
2023-12-31 23:40:00,SystemResetWarning,0831.1,4.99,000.00,024.7,024.0,000.0,033.0,026.0,12.3,0000.0,0014.15,0005.47,0004.76
2023-12-31 23:41:00,SystemResetWarning,0831.2,4.99,000.00,024.7,024.0,000.0,033.0,026.1,12.3,0000.0,0013.81,0005.48,0004.76
2023-12-31 23:42:00,SystemResetWarning,0831.2,4.99,000.00,024.7,024.0,000.0,033.0,026.1,12.3,0000.0,0013.67,0005.50,0004.78
2023-12-31 23:43:00,SystemResetWarning,0831.1,5.02,000.00,024.7,024.0,000.0,033.0,026.1,12.3,0000.0,0014.96,0005.53,0004.81
2023-12-31 23:44:00,SystemResetWarning,0831.1,5.00,000.00,024.8,024.0,000.0,033.0,026.1,12.3,0000.0,0015.80,0005.56,0004.85
2023-12-31 23:45:00,SystemResetWarning,0831.1,5.00,000.00,024.8,024.0,000.0,033.0,026.0,12.3,0000.0,0015.65,0005.61,0004.88
2023-12-31 23:46:00,SystemResetWarning,0831.2,4.99,000.00,024.8,024.0,000.0,033.0,026.0,12.3,0000.0,0015.47,0005.64,0004.91
2023-12-31 23:47:00,SystemResetWarning,0831.2,4.99,000.00,024.8,024.0,000.0,033.0,026.1,12.3,0000.0,0015.93,0005.67,0004.94
2023-12-31 23:48:00,SystemResetWarning,0831.2,5.00,000.00,024.8,024.0,000.0,033.0,026.1,12.3,0000.0,0016.07,0005.71,0004.97
2023-12-31 23:49:00,SystemResetWarning,0831.2,4.99,000.00,024.8,024.0,000.0,033.0,026.1,12.3,0000.0,0015.43,0005.76,0004.99
2023-12-31 23:50:00,SystemResetWarning,0831.2,5.00,000.00,024.8,024.0,000.0,033.0,026.1,12.3,0000.0,0014.68,0005.74,0005.02
2023-12-31 23:51:00,SystemResetWarning,0831.2,5.00,000.00,024.8,024.1,000.0,033.0,026.1,12.3,0000.0,0014.70,0005.76,0005.04
2023-12-31 23:52:00,SystemResetWarning,0831.2,5.01,000.00,024.8,024.1,000.0,033.1,026.2,12.3,0000.0,0015.11,0005.77,0005.07
2023-12-31 23:53:00,SystemResetWarning,0831.2,5.00,000.00,024.8,024.1,000.0,033.1,026.1,12.3,0000.0,0015.40,0005.80,0005.10
2023-12-31 23:54:00,SystemResetWarning,0831.3,5.00,000.00,024.8,024.1,000.0,033.1,026.1,12.3,0000.0,0014.24,0005.77,0005.10
2023-12-31 23:55:00,SystemResetWarning,0831.3,5.00,000.00,024.8,024.1,000.0,033.1,026.1,12.3,0000.0,0012.58,0005.78,0005.11
2023-12-31 23:56:00,SystemResetWarning,0831.3,5.00,000.00,024.8,024.1,000.0,033.1,026.1,12.3,0000.0,0013.09,0005.78,0005.11
2023-12-31 23:57:00,SystemResetWarning,0831.2,5.00,000.00,024.8,024.1,000.0,033.1,026.2,12.3,0000.0,0013.44,0005.78,0005.12
2023-12-31 23:58:00,SystemResetWarning,0831.3,5.00,000.00,024.8,024.1,000.0,033.1,026.2,12.2,0000.0,0013.21,0005.81,0005.14
2023-12-31 23:59:00,SystemResetWarning,0831.3,5.00,000.00,024.8,024.1,000.0,033.1,026.2,12.2,0000.0,0012.29,0005.81,0005.14
